Zurück zum Katalog

SL-14 DEB

AktivPO
NORAD 20308·DEBRIS·🇷🇺 Russia

Gestartet Sep 28, 1989 von Plesetsk Cosmodrome

Loading…

Nächste Überflüge (nächste 24 Stunden)

TLE

AktuellSource: Space-Track

Epoche: Sep 14, 2026, 11:09 UTC

1 20308U 89080G   26257.46472713  .00001902  00000-0  55675-3 0  9997
2 20308  82.6916 349.1160 0876781  86.6374 283.4531 13.20013333731031

Verfolge SL-14 DEB in Echtzeit mit AllMySat

Download on the App Store